TimeCST,TemperatureF,Dew PointF,Humidity,Sea Level PressureIn,VisibilityMPH,Wind Direction,Wind SpeedMPH,Gust SpeedMPH,PrecipitationIn,Events,Conditions,WindDirDegrees,DateUTC
12:53 AM,30.9,19.0,61,30.32,10.0,North,16.1,-,N/A,,Clear,360,2013-01-20 06:53:00
1:53 AM,27.0,14.0,58,30.34,10.0,North,12.7,-,N/A,,Clear,360,2013-01-20 07:53:00
2:53 AM,24.1,10.9,57,30.36,10.0,North,12.7,-,N/A,,Clear,10,2013-01-20 08:53:00
3:53 AM,21.9,10.0,60,30.35,10.0,North,9.2,-,N/A,,Clear,360,2013-01-20 09:53:00
4:53 AM,19.9,10.9,68,30.37,10.0,North,3.5,-,N/A,,Clear,350,2013-01-20 10:53:00
5:53 AM,19.0,10.0,68,30.39,10.0,North,5.8,-,N/A,,Clear,360,2013-01-20 11:53:00
6:53 AM,19.0,10.0,68,30.38,10.0,NNE,6.9,-,N/A,,Clear,20,2013-01-20 12:53:00
7:53 AM,18.0,10.9,74,30.38,10.0,NE,4.6,-,N/A,,Clear,40,2013-01-20 13:53:00
8:53 AM,21.0,7.0,55,30.38,10.0,NNE,12.7,-,N/A,,Clear,30,2013-01-20 14:53:00
9:53 AM,21.9,6.1,51,30.39,10.0,ENE,6.9,-,N/A,,Clear,70,2013-01-20 15:53:00
10:53 AM,26.1,6.1,43,30.40,10.0,NE,4.6,-,N/A,,Clear,50,2013-01-20 16:53:00
11:53 AM,27.0,6.1,41,30.40,10.0,North,6.9,-,N/A,,Clear,10,2013-01-20 17:53:00
12:53 PM,28.0,6.1,39,30.38,10.0,NNE,8.1,-,N/A,,Clear,20,2013-01-20 18:53:00
1:53 PM,30.0,8.1,40,30.38,10.0,North,10.4,-,N/A,,Clear,10,2013-01-20 19:53:00
2:53 PM,30.0,6.1,36,30.37,10.0,NNE,12.7,-,N/A,,Partly Cloudy,20,2013-01-20 20:53:00
3:53 PM,28.9,6.1,38,30.39,10.0,North,10.4,-,N/A,,Mostly Cloudy,10,2013-01-20 21:53:00
4:53 PM,27.0,7.0,43,30.40,10.0,NNE,12.7,-,N/A,,Overcast,20,2013-01-20 22:53:00
5:53 PM,25.0,8.1,49,30.41,10.0,North,13.8,-,N/A,,Overcast,10,2013-01-20 23:53:00
6:53 PM,24.1,7.0,48,30.43,10.0,North,12.7,-,N/A,,Overcast,350,2013-01-21 00:53:00
7:53 PM,21.0,8.1,57,30.45,10.0,NNW,10.4,-,N/A,,Mostly Cloudy,340,2013-01-21 01:53:00
8:53 PM,19.9,9.0,62,30.44,10.0,North,6.9,-,N/A,,Clear,350,2013-01-21 02:53:00
9:53 PM,18.0,9.0,68,30.45,10.0,North,8.1,-,N/A,,Clear,350,2013-01-21 03:53:00
10:53 PM,18.0,10.0,71,30.47,10.0,North,11.5,-,N/A,,Clear,350,2013-01-21 04:53:00
11:53 PM,17.1,10.0,74,30.47,10.0,NNW,9.2,-,N/A,,Clear,340,2013-01-21 05:53:00